Location: El Conde
(10.2895°N, 67.2409°W)
Time: 19:51:12
(UTC+00:00)

Landsat 7 - Pass Details

Date: 19 May 2024
Orbit: 690 x 692 km, 97.9° (Epoch: 12 June)

Event Time Altitude Azimuth Distance (km) Brightness Sun altitude
Exits shadow 23:36:47 - 165° (SSE) 2,671 6.5 -12.8°
Reaches altitude 10° 23:38:05 10° 164° (SSE) 2,140 6.0 -13.1°
Maximum altitude 23:42:46 79° 79° (ENE) 706 3.7 -14.1°
Drops below altitude 10° 23:47:27 10° 352° (N) 2,138 6.7 -15.2°
Sets 23:49:41 0° 351° (N) 3,053 7.6 -15.7°
